[[{"header":{"parameterUnit":"m.s-1","parameterCategory":1,"la1":30.2991,"la2":30.254,"lo1":-89.0895,"lo2":-89.0444,"dy":0.0017,"dx":0.0017,"nx":28,"ny":28,"refTime":"2024-03-27T03:00:00:Z","depth":0,"parameterNumber":2,"parameterNumberName":"U-component_of_WINDS"},"data":[0,0,0,0,0,0,0,0,0,0,0,0,0,0,0,0,0,0,0,0,0,0,0,0,0,0,0,0,0,0,0,0,0,0,0,0,0,0,0,0,0,0,0,0,0,0,0,0,0,0,0,0,0,0,0,0,0,0,0.9669,0.9669,0,0.9654,0.9654,0.9653,0.9637,0.9637,0.9636,0.9636,0.9618,0.9617,0.9617,0,0,0,0,0,0,0,0,0,0,0,0,0,0.9683,0.9683,0.9669,0.9669,0.9669,0.9654,0.9654,0.9653,0.9637,0.9637,0.9636,0.9636,0.9618,0.9617,0.9617,0,0,0,0,0,0,0,0,0,0,0,0,0,0.9673,0.9683,0.9669,0.9659,0.9658,0.9654,0.9654,0.9653,0.9637,0.9637,0.9636,0.9636,0.9618,0.9617,0.9617,0.9621,0,0,0.9616,0.9615,0,0,0,0,0,0,0,0,0.9674,0.9673,0.966,0.9659,0.9658,0.9647,0.9652,0.9642,0.9637,0.9645,0.9636,0.9636,0.9627,0.9626,0.9624,0.962,0.9619,0.9616,0.9615,0.9615,0.9615,0,0,0,0,0,0,0,0.9674,0.9673,0.9663,0.966,0.9659,0.9655,0.9653,0.965,0.9638,0.9644,0.9643,0.9641,0.9627,0.9624,0.9623,0.9619,0.9616,0.9615,0.9615,0.9615,0.962,0.962,0,0,0,0,0,0,0.9677,0.9674,0.9663,0.9662,0.9665,0.9655,0.9653,0.9651,0.9638,0.9636,0.9642,0.9641,0.9625,0.9624,0.9623,0.9628,0.9615,0.9615,0.9615,0.962,0.962,0.962,0,0,0,0,0,0,0.9677,0.9676,0.9664,0.9668,0.9666,0.9655,0.9653,0.9651,0.9648,0.9636,0.9634,0.9642,0.9625,0.9623,0.9622,0.9627,0.9615,0.9614,0.9619,0.962,0.962,0.9637,0,0,0,0,0,0,0.9678,0.9676,0.9678,0.9668,0.9666,0.9664,0.9653,0.9651,0.9648,0.9647,0.9636,0.9633,0.9625,0.9623,0.9622,0.9626,0.9614,0.9619,0.9619,0.962,0.9636,0.9638,0.964,0,0,0,0,0,0.9678,0.9682,0.9678,0.9677,0.9668,0.9664,0.9663,0.9654,0.9648,0.965,0.9643,0.9634,0.9627,0.9623,0.9622,0.9626,0.9618,0.9619,0.962,0.9635,0.9638,0.964,0,0,0,0,0,0,0.9691,0.9681,0.9676,0.9677,0.9672,0.9662,0.9663,0.9657,0.9652,0.9651,0.9638,0.9636,0.9637,0.9631,0.9627,0.963,0.9621,0.9622,0.9634,0.9636,0.9638,0.9639,0.9613,0,0,0,0,0,0.9695,0.9694,0.9684,0.9686,0.9684,0.9674,0.9672,0.9666,0.966,0.9657,0.9649,0.9643,0.964,0.9638,0.9634,0.9636,0.9634,0.9638,0.964,0.9642,0.9642,0.9644,0.9647,0.9623,0.9623,0.9623,0,0,0.9701,0.9695,0.9695,0.9689,0.9684,0.9683,0.9672,0.9671,0.967,0.9656,0.9656,0.965,0.9642,0.9644,0.9644,0.9639,0.9649,0.9643,0.9644,0.9644,0.9646,0.9648,0.965,0.9624,0.9624,0.9624,0,0,0.9712,0.9707,0.9709,0.9705,0.9699,0.9693,0.9693,0.9685,0.9681,0.968,0.967,0.9669,0.9663,0.9658,0.9655,0.9667,0.9659,0.9666,0.9676,0.9679,0.968,0.9682,0.9687,0.9689,0.9667,0.9667,0.9667,0,0.972,0.9718,0.971,0.971,0.9708,0.9698,0.97,0.9696,0.9688,0.9687,0.9682,0.9676,0.967,0.9671,0.9674,0.9672,0.9672,0.9667,0.9681,0.9682,0.9684,0.9688,0.969,0.9668,0.9668,0.9668,0.9668,0,0.9729,0.9729,0.9731,0.9725,0.9724,0.9724,0.9716,0.9716,0.971,0.9704,0.9705,0.9697,0.9693,0.9692,0.9686,0.9693,0.969,0.9683,0.9674,0.9687,0.9691,0.9693,0.9669,0.9669,0.9669,0.9668,0,0,0.9746,0.9738,0.9739,0.9737,0.9731,0.973,0.9731,0.9728,0.9727,0.9723,0.9724,0.972,0.9715,0.9711,0.9705,0.9707,0.9718,0.97,0.97,0.9704,0.9726,0.9731,0.9733,0.9713,0.9714,0.9714,0.9727,0,0.9755,0.9757,0.9751,0.9754,0.9754,0.9746,0.9747,0.9743,0.9738,0.9737,0.9732,0.973,0.9723,0.9721,0.9722,0.9716,0.9722,0.9715,0.9714,0.9714,0.9716,0.9735,0.974,0.9752,0.9728,0.9728,0.9729,0,0.9766,0.9765,0.9769,0.9764,0.9764,0.9765,0.9762,0.9761,0.9757,0.9754,0.9752,0.9745,0.9746,0.9738,0.9739,0.9735,0.9734,0.9731,0.9731,0.973,0.9722,0.9735,0.9756,0.9758,0.9731,0.9731,0.9731,0,0.9779,0.9778,0.978,0.9779,0.9773,0.9774,0.9772,0.9768,0.9767,0.9765,0.9764,0.9761,0.976,0.9758,0.9751,0.9746,0.9754,0.9745,0.9751,0.9751,0.9752,0.9752,0.9774,0.9752,0.9752,0.9752,0.9752,0,0.979,0.9793,0.9786,0.9787,0.9791,0.9784,0.9787,0.9784,0.9781,0.9781,0.9773,0.9774,0.9765,0.9765,0.9759,0.9762,0.9761,0.9758,0.9757,0.9759,0.9759,0.9758,0.9757,0.9752,0.9752,0.9752,0.9752,0,0.9804,0.98,0.9802,0.9797,0.9796,0.9799,0.9795,0.9796,0.9792,0.9794,0.9793,0.9787,0.9786,0.978,0.9777,0.9774,0.9778,0.9775,0.978,0.9779,0.9786,0.9785,0.9807,0.981,0.9786,0.9786,0.9786,0,0.9812,0.9814,0.981,0.9811,0.981,0.981,0.981,0.9804,0.9804,0.9801,0.9803,0.9802,0.9801,0.9801,0.9796,0.9795,0.9791,0.9799,0.9791,0.9794,0.9792,0.9792,0.9793,0.9801,0.9801,0.9801,0.9801,0,0.9825,0.9824,0.9824,0.9824,0.9825,0.9824,0.9823,0.9824,0.9817,0.9818,0.9818,0.9818,0.9817,0.9816,0.9815,0.9812,0.9806,0.9804,0.9806,0.9808,0.9811,0.981,0.9785,0.9803,0.9803,0.9803,0.9803,0.9803,0.9836,0.9839,0.9837,0.9838,0.9838,0.9837,0.9839,0.9836,0.9837,0.9836,0.9833,0.9834,0.9832,0.9829,0.9827,0.9828,0.9824,0.9826,0.9826,0.9827,0.9828,0.9811,0.9827,0.9827,0.9827,0.9827,0.9827,0,0.985,0.985,0.9851,0.9851,0.9852,0.9848,0.9847,0.9848,0.985,0.9848,0.9849,0.985,0.985,0.9846,0.9846,0.9848,0.9845,0.9848,0.9848,0.9847,0.9832,0.9831,0.985,0.985,0.985,0.985,0.985,0.985,0.9857,0.9862,0.986,0.9864,0.9863,0.9866,0.9866,0.9866,0.9865,0.9867,0.9868,0.9866,0.9864,0.9864,0.9864,0.9863,0.9863,0.9867,0.9865,0.985,0.9848,0.9846,0.9845,0.9867,0.9867,0.9881,0.9881,0.9881]},{"header":{"parameterUnit":"m.s-1","parameterCategory":1,"la1":30.2991,"la2":30.254,"lo1":-89.0895,"lo2":-89.0444,"dy":0.0017,"dx":0.0017,"nx":28,"ny":28,"refTime":"2024-03-27T03:00:00:Z","depth":0,"parameterNumber":3,"parameterNumberName":"V-component_of_WINDS"},"data":[0,0,0,0,0,0,0,0,0,0,0,0,0,0,0,0,0,0,0,0,0,0,0,0,0,0,0,0,0,0,0,0,0,0,0,0,0,0,0,0,0,0,0,0,0,0,0,0,0,0,0,0,0,0,0,0,0,0,-7.0333,-7.0334,0,-7.0396,-7.0397,-7.0397,-7.0316,-7.0313,-7.031,-7.0307,-7.0367,-7.0371,-7.0376,0,0,0,0,0,0,0,0,0,0,0,0,0,-7.0138,-7.0142,-7.0333,-7.0334,-7.0334,-7.0396,-7.0397,-7.0397,-7.0317,-7.0313,-7.0309,-7.0306,-7.0366,-7.0371,-7.0376,0,0,0,0,0,0,0,0,0,0,0,0,0,-7.0214,-7.0143,-7.0333,-7.0302,-7.0299,-7.0396,-7.0397,-7.0398,-7.0317,-7.0313,-7.0309,-7.0304,-7.0364,-7.037,-7.0377,-7.0505,0,0,-7.0397,-7.0399,0,0,0,0,0,0,0,0,-7.0209,-7.0221,-7.0305,-7.0304,-7.0302,-7.0344,-7.035,-7.0434,-7.0318,-7.031,-7.0307,-7.0302,-7.0363,-7.0369,-7.039,-7.0508,-7.051,-7.0397,-7.0401,-7.0404,-7.0406,0,0,0,0,0,0,0,-7.0204,-7.0218,-7.0357,-7.0307,-7.0304,-7.0283,-7.0289,-7.0365,-7.036,-7.0311,-7.0305,-7.0314,-7.0361,-7.0384,-7.0391,-7.0511,-7.0397,-7.0403,-7.0407,-7.0409,-7.0737,-7.0742,0,0,0,0,0,0,-7.0203,-7.0214,-7.0355,-7.0359,-7.0244,-7.029,-7.0297,-7.0335,-7.0359,-7.0359,-7.0318,-7.031,-7.0375,-7.0384,-7.0393,-7.0545,-7.0404,-7.041,-7.0414,-7.0733,-7.0738,-7.0744,0,0,0,0,0,0,-7.02,-7.0217,-7.0353,-7.0285,-7.0301,-7.0298,-7.0341,-7.0338,-7.0362,-7.0365,-7.0363,-7.0343,-7.0372,-7.0384,-7.0478,-7.0546,-7.0413,-7.0419,-7.0727,-7.0734,-7.0741,-7.085,0,0,0,0,0,0,-7.0194,-7.0216,-7.0266,-7.0287,-7.0305,-7.0439,-7.0345,-7.0343,-7.0374,-7.0364,-7.0388,-7.0387,-7.037,-7.0469,-7.0485,-7.0552,-7.0424,-7.0721,-7.073,-7.0739,-7.084,-7.086,-7.0877,0,0,0,0,0,-7.0188,-7.0293,-7.0269,-7.0286,-7.0367,-7.0443,-7.0453,-7.0432,-7.0379,-7.0429,-7.0431,-7.0387,-7.0536,-7.0479,-7.0496,-7.0567,-7.0716,-7.0728,-7.0738,-7.0832,-7.0856,-7.0876,0,0,0,0,0,0,-7.0277,-7.0295,-7.0268,-7.0384,-7.0413,-7.0429,-7.0491,-7.0458,-7.0501,-7.049,-7.046,-7.0466,-7.0568,-7.0576,-7.0513,-7.0692,-7.0617,-7.0632,-7.0683,-7.0706,-7.0724,-7.0719,-7.0429,0,0,0,0,0,-7.0311,-7.0372,-7.0384,-7.0484,-7.0501,-7.0494,-7.0526,-7.0507,-7.0535,-7.0546,-7.0555,-7.0583,-7.0636,-7.0671,-7.072,-7.0841,-7.0845,-7.0898,-7.0917,-7.0932,-7.0944,-7.1009,-7.1033,-7.0779,-7.0779,-7.0779,0,0,-7.038,-7.0397,-7.0437,-7.0503,-7.0523,-7.0586,-7.0504,-7.0574,-7.062,-7.0556,-7.0647,-7.0654,-7.0683,-7.0792,-7.084,-7.0802,-7.1016,-7.0945,-7.0957,-7.0962,-7.1023,-7.1047,-7.1068,-7.0787,-7.0785,-7.0784,0,0,-7.0538,-7.0558,-7.0644,-7.0667,-7.0699,-7.0694,-7.0715,-7.0737,-7.074,-7.0831,-7.0784,-7.0838,-7.093,-7.0953,-7.0976,-7.1145,-7.1106,-7.1161,-7.1257,-7.132,-7.134,-7.1358,-7.1417,-7.1439,-7.1174,-7.1174,-7.1175,0,-7.062,-7.0715,-7.0692,-7.0767,-7.0796,-7.0744,-7.083,-7.0852,-7.0898,-7.092,-7.0877,-7.0993,-7.1008,-7.1121,-7.1163,-7.1184,-7.1206,-7.1158,-7.1339,-7.1357,-7.1373,-7.1429,-7.1452,-7.1181,-7.118,-7.118,-7.1179,0,-7.0813,-7.088,-7.0945,-7.0994,-7.1031,-7.1111,-7.1099,-7.1139,-7.1118,-7.1117,-7.1209,-7.1227,-7.1278,-7.1304,-7.1282,-7.1414,-7.139,-7.1344,-7.1268,-7.1404,-7.1457,-7.1478,-7.119,-7.1188,-7.1186,-7.1184,0,0,-7.1029,-7.1065,-7.109,-7.1111,-7.1144,-7.1194,-7.1271,-7.1324,-7.1358,-7.1392,-7.1456,-7.1535,-7.1494,-7.152,-7.1501,-7.1557,-7.169,-7.1504,-7.1504,-7.1538,-7.1835,-7.187,-7.1895,-7.1664,-7.1668,-7.1671,-7.1833,0,-7.1188,-7.1323,-7.1306,-7.1435,-7.1496,-7.1448,-7.1515,-7.1541,-7.1543,-7.1593,-7.1593,-7.1651,-7.1591,-7.1607,-7.166,-7.1662,-7.1749,-7.165,-7.1722,-7.1725,-7.1716,-7.1923,-7.1959,-7.2111,-7.1853,-7.1857,-7.1859,0,-7.1391,-7.1434,-7.1571,-7.1595,-7.162,-7.1681,-7.1727,-7.1777,-7.1806,-7.1803,-7.1834,-7.1805,-7.1881,-7.1804,-7.1908,-7.1841,-7.1869,-7.1875,-7.188,-7.1886,-7.18,-7.1934,-7.2159,-7.2181,-7.1892,-7.1889,-7.1887,0,-7.1535,-7.1627,-7.1721,-7.1741,-7.1771,-7.1815,-7.1829,-7.1854,-7.1887,-7.1927,-7.1948,-7.1996,-7.2023,-7.206,-7.2045,-7.199,-7.2152,-7.2073,-7.215,-7.2151,-7.2186,-7.2184,-7.2418,-7.2205,-7.2204,-7.2204,-7.2203,0,-7.1713,-7.1799,-7.1786,-7.1844,-7.1937,-7.1916,-7.2009,-7.2017,-7.204,-7.2097,-7.2057,-7.2111,-7.2087,-7.214,-7.2128,-7.2216,-7.2228,-7.2226,-7.2222,-7.223,-7.223,-7.2248,-7.2237,-7.221,-7.2209,-7.2207,-7.2206,0,-7.189,-7.1885,-7.1984,-7.2005,-7.2012,-7.2081,-7.2098,-7.2151,-7.215,-7.2223,-7.2239,-7.2236,-7.2296,-7.2284,-7.2349,-7.2341,-7.2451,-7.2434,-7.2442,-7.2438,-7.2516,-7.2509,-7.2769,-7.2802,-7.2568,-7.257,-7.2572,0,-7.2004,-7.2069,-7.2098,-7.2135,-7.2153,-7.2212,-7.2246,-7.2227,-7.2264,-7.2302,-7.2351,-7.2407,-7.2451,-7.2549,-7.2552,-7.2601,-7.2585,-7.2673,-7.2592,-7.2598,-7.2586,-7.2582,-7.2588,-7.2688,-7.2691,-7.2693,-7.2695,0,-7.2208,-7.2203,-7.2254,-7.2306,-7.2348,-7.2387,-7.2422,-7.2453,-7.2437,-7.248,-7.2542,-7.2577,-7.2644,-7.27,-7.2747,-7.2759,-7.2725,-7.2721,-7.2741,-7.275,-7.2752,-7.2752,-7.2486,-7.2715,-7.2713,-7.2711,-7.271,-7.2709,-7.2356,-7.2412,-7.2442,-7.2501,-7.2525,-7.2559,-7.2611,-7.2617,-7.2668,-7.2723,-7.2708,-7.2778,-7.2805,-7.2864,-7.2883,-7.2936,-7.2903,-7.2932,-7.294,-7.2947,-7.2957,-7.2744,-7.2944,-7.2943,-7.2943,-7.2942,-7.2942,0,-7.2558,-7.2575,-7.263,-7.2681,-7.2727,-7.2693,-7.2729,-7.277,-7.2833,-7.2861,-7.2907,-7.2977,-7.3032,-7.304,-7.3091,-7.3132,-7.3118,-7.3146,-7.3143,-7.3146,-7.2983,-7.2961,-7.3157,-7.3157,-7.3157,-7.3157,-7.3157,-7.3157,-7.2668,-7.2761,-7.2759,-7.2863,-7.2879,-7.2949,-7.2973,-7.3003,-7.3026,-7.3108,-7.3154,-7.316,-7.318,-7.3233,-7.3281,-7.3281,-7.3302,-7.3337,-7.3332,-7.3179,-7.3158,-7.3137,-7.3116,-7.3342,-7.3342,-7.349,-7.3492,-7.3493]}]]